Weerstation Grootegast  Weerstation Grootegast


15 daagse weersverwachting Caen (FR)

  • Overzicht
  • Per uur
  • 15 dagen
  • Extra
  • Vergelijk
  • Kaarten
  • Dagkaart
  • Meer »
  • Info
  • Statistieken
  • Directe link
    Temp 6h Neerslag Wind  
 06:24     21:53    Daglengte: 15:29 Morgen
02:00
16°
 
1
08:00
17°
 
1
14:00
27°
 
1
20:00
22°
 
4
 06:25     21:52    Daglengte: 15:27 Dinsdag 24 Jul
02:00
18°
 
1
08:00
19°
 
1
14:00
25°
 
2
20:00
24°
 
3
 06:26     21:50    Daglengte: 15:24 Woensdag 25 Jul
02:00
19°
 
2
08:00
18°
 
3
14:00
24°
 
4
20:00
21°
 
3
Locatie info
Region: Basse-Normandie
Latitude: 49.1844°N
Longitude: -0.3611°E
21 masl
Postcode: 14000
Temp/Neerslag /Baro Onweer/Dauwpunt
    Temp Baro 1h Neerslag Dauwpunt Wind UV Bewolking  
 06:23     21:54    Daglengte: 15:31 Vandaag
23:00
18°
1018.3 hPa   15.2°
1
Windvlaag: -1.6 m/s
0%
 06:24     21:53    Daglengte: 15:29 Morgen
00:00
17°
1018.6 hPa   14.9°
1
Windvlaag: -0.8 m/s
1%
01:00
17°
1018.6 hPa   14.7°
1
Windvlaag: 0.5 m/s
2%
02:00
16°
1018.7 hPa   14.6°
1
Windvlaag: 0.5 m/s
1%
03:00
16°
1018.5 hPa   14.3°
1
Windvlaag: 0.6 m/s
1%
04:00
15°
1018.5 hPa   14.0°
1
Windvlaag: 0.6 m/s
0%
05:00
15°
1018.3 hPa   13.8°
1
Windvlaag: 0.5 m/s
0%
06:00
15°
1018.5 hPa   13.6°
1
Windvlaag: 0.4 m/s
1%
07:00
15°
1018.5 hPa   13.8°
1
Windvlaag: 0.5 m/s
0%
08:00
17°
1018.6 hPa   14.1°
1
Windvlaag: 0.5 m/s
0%
09:00
19°
1018.7 hPa   14.3°
1
Windvlaag: 1 m/s
0%
10:00
21°
1018.7 hPa   14.1°
1
Windvlaag: 1.1 m/s
0%
11:00
23°
1018.7 hPa   14.4°
1
Windvlaag: 1.9 m/s
0%
12:00
25°
1018.4 hPa   14.6°
1
Windvlaag: 1.8 m/s
0%
13:00
26°
1018.2 hPa   14.4°
1
Windvlaag: 0.7 m/s
0%
14:00
27°
1017.7 hPa   14.3°
1
Windvlaag: -2.2 m/s
2%
15:00
27°
1017.6 hPa   14.0°
2
Windvlaag: -3.6 m/s
10%
16:00
26°
1017.3 hPa   14.4°
3
Windvlaag: -4.1 m/s
16%
17:00
26°
1017.0 hPa   15.8°
4
Windvlaag: -4 m/s
5%
18:00
25°
1016.9 hPa   15.1°
4
Windvlaag: -3.5 m/s
7%
19:00
24°
1016.7 hPa   14.8°
4
Windvlaag: -3.3 m/s
3%
20:00
22°
1016.5 hPa   15.4°
4
Windvlaag: -3.1 m/s
6%
21:00
21°
1016.6 hPa   16.3°
3
Windvlaag: -2.5 m/s
7%
22:00
19°
1016.7 hPa   16.6°
2
Windvlaag: -1.8 m/s
18%
23:00
19°
1016.8 hPa   16.8°
1
Windvlaag: -1.2 m/s
26%
 06:25     21:52    Daglengte: 15:27 Dinsdag 24 Jul
00:00
19°
1016.6 hPa   16.8°
1
Windvlaag: -0.6 m/s
26%
01:00
18°
1016.4 hPa   16.6°
1
Windvlaag: -0.5 m/s
15%
02:00
18°
1016.1 hPa   16.2°
1
Windvlaag: -0.3 m/s
50%
03:00
18°
1015.7 hPa   15.9°
1
Windvlaag: -0.1 m/s
64%
04:00
18°
1015.3 hPa   16.0°
1
Windvlaag: -0.4 m/s
71%
05:00
18°
1015.0 hPa   16.2°
1
Windvlaag: -1.5 m/s
79%
06:00
18°
1014.9 hPa   16.1°
1
Windvlaag: -1.6 m/s
81%
07:00
18°
1014.9 hPa
11%
16.3°
1
Windvlaag: -1.5 m/s
75%
08:00
19°
1014.8 hPa
11%
16.1°
1
Windvlaag: -1.1 m/s
67%
09:00
20°
1014.7 hPa
11%
15.6°
2
Windvlaag: -1 m/s
62%
10:00
21°
1014.4 hPa
11%
15.5°
2
Windvlaag: -1 m/s
57%
11:00
23°
1014.3 hPa
11%
15.9°
2
Windvlaag: -1 m/s
46%
12:00
24°
1014.1 hPa
11%
16.5°
2
Windvlaag: -1.3 m/s
43%
13:00
25°
1014.0 hPa
11%
16.5°
2
Windvlaag: -2.3 m/s
39%
14:00
25°
1013.8 hPa
13%
16.6°
2
Windvlaag: -3.1 m/s
45%
15:00
25°
1013.6 hPa
14%
17.2°
2
Windvlaag: -3.5 m/s
48%
16:00
25°
1013.4 hPa
14%
17.6°
3
Windvlaag: -3.5 m/s
32%
17:00
26°
1013.1 hPa
21%
17.3°
3
Windvlaag: -3.6 m/s
46%
18:00
25°
1012.9 hPa
21%
17.2°
4
Windvlaag: -3.6 m/s
44%
19:00
25°
1012.7 hPa
22%
16.6°
3
Windvlaag: -3.4 m/s
33%
20:00
24°
1012.8 hPa
21%
16.7°
3
Windvlaag: -2.8 m/s
37%
21:00
22°
1013.1 hPa
21%
17.9°
3
Windvlaag: -2.3 m/s
20%
22:00
21°
1013.7 hPa
21%
17.5°
3
Windvlaag: -1.8 m/s
13%
23:00
20°
1014.0 hPa
21%
17.0°
2
Windvlaag: -1.5 m/s
17%
 06:26     21:50    Daglengte: 15:24 Woensdag 25 Jul
00:00
19°
1014.2 hPa
21%
16.8°
2
Windvlaag: -1.5 m/s
22%
01:00
19°
1014.2 hPa
21%
16.7°
2
Windvlaag: -1.3 m/s
16%
02:00
19°
1014.2 hPa
21%
16.6°
2
Windvlaag: -0.8 m/s
17%
03:00
18°
1014.1 hPa
21%
16.6°
2
Windvlaag: -0.5 m/s
23%
04:00
18°
1014.1 hPa
21%
16.5°
2
Windvlaag: -0.2 m/s
18%
05:00
18°
1014.2 hPa
21%
16.4°
2
Windvlaag: 0.3 m/s
20%
06:00
18°
1014.4 hPa
21%
16.6°
2
Windvlaag: 0.3 m/s
27%
07:00
18°
1014.5 hPa
21%
16.8°
3
Windvlaag: -0.2 m/s
22%
08:00
18°
1014.9 hPa
21%
16.6°
3
Windvlaag: -1 m/s
43%
09:00
19°
1015.1 hPa
21%
16.4°
2
Windvlaag: -1.9 m/s
61%
10:00
21°
1015.1 hPa
21%
16.1°
2
Windvlaag: -2.4 m/s
29%
11:00
22°
1015.3 hPa
21%
16.0°
2
Windvlaag: -2.4 m/s
41%
12:00
23°
1015.5 hPa
21%
16.1°
3
Windvlaag: -2.6 m/s
42%
13:00
24°
1015.6 hPa
21%
16.3°
3
Windvlaag: -3.1 m/s
16%
14:00
24°
1015.5 hPa
21%
16.4°
4
Windvlaag: -3.3 m/s
19%
15:00
25°
1015.1 hPa
21%
16.5°
3
Windvlaag: 0.5 m/s
19%
16:00
25°
1014.9 hPa
21%
16.6°
4
Windvlaag: 0.6 m/s
32%
17:00
24°
1014.9 hPa
21%
16.4°
4
Windvlaag: 0.6 m/s
32%
18:00
23°
1015.0 hPa
21%
16.0°
4
Windvlaag: 0.6 m/s
41%
19:00
22°
1015.1 hPa
21%
15.3°
4
Windvlaag: 0.6 m/s
28%
20:00
21°
1015.3 hPa
21%
14.7°
3
Windvlaag: 0.7 m/s
15%
21:00
20°
1015.8 hPa 0.8 mm
100%
14.8°
3
Windvlaag: 4.4 m/s
23%
22:00
19°
1015.9 hPa 0.8 mm
100%
14.9°
3
Windvlaag: 3.8 m/s
20%
Temp/Neerslag /Baro Onweer/Dauwpunt
    Temp Baro Neerslag Dauwpunt Wind Bewolking  
 06:23     21:54    Daglengte: 15:31 Vandaag
23:00
18°
1018.3 hPa   15.2°
1
0%
 06:24     21:53    Daglengte: 15:29 Morgen
02:00
16°
1018.7 hPa   14.6°
1
1%
05:00
15°
1018.3 hPa   13.8°
1
0%
08:00
17°
1018.6 hPa   14.1°
1
0%
11:00
23°
1018.7 hPa   14.4°
1
0%
14:00
27°
1017.7 hPa   14.3°
1
2%
17:00
26°
1017.0 hPa   15.8°
4
5%
20:00
22°
1016.5 hPa   15.4°
4
6%
23:00
19°
1016.8 hPa   16.8°
1
26%
 06:25     21:52    Daglengte: 15:27 Dinsdag 24 Jul
02:00
18°
1016.1 hPa   16.2°
1
50%
05:00
18°
1015.0 hPa   16.2°
1
79%
08:00
19°
1014.8 hPa   16.1°
1
67%
11:00
23°
1014.3 hPa   15.9°
2
46%
14:00
25°
1013.8 hPa   16.6°
2
45%
17:00
26°
1013.1 hPa   17.3°
3
46%
20:00
24°
1012.8 hPa   16.7°
3
37%
23:00
20°
1014.0 hPa   17.0°
2
17%
 06:26     21:50    Daglengte: 15:24 Woensdag 25 Jul
02:00
19°
1014.2 hPa   16.6°
2
17%
05:00
18°
1014.2 hPa   16.4°
2
20%
08:00
18°
1014.9 hPa   16.6°
3
43%
11:00
22°
1015.3 hPa   16.0°
2
41%
14:00
24°
1015.5 hPa   16.4°
4
19%
17:00
24°
1014.9 hPa   16.4°
4
32%
20:00
21°
1015.3 hPa   14.7°
3
15%
23:00
19°
1016.0 hPa 2.3 mm 15.0°
2
19%
 06:28     21:49    Daglengte: 15:21 Donderdag 26 Jul
02:00
16°
1016.2 hPa 2.3 mm 15.0°
2
7%
05:00
17°
1015.7 hPa   15.2°
1
24%
08:00
18°
1015.5 hPa   15.4°
1
32%
11:00
21°
1015.4 hPa   16.2°
2
32%
14:00
25°
1015.2 hPa   16.4°
3
32%
17:00
23°
1015.1 hPa   15.7°
3
21%
20:00
22°
1014.9 hPa 0.1 mm 14.8°
3
11%
23:00
20°
1015.4 hPa   14.7°
2
23%
 06:29     21:48    Daglengte: 15:19 Vrijdag 27 Jul
02:00
18°
1015.7 hPa   14.6°
2
36%
05:00
18°
1015.4 hPa   15.8°
2
43%
08:00
19°
1015.2 hPa   17.2°
1
51%
11:00
21°
1014.8 hPa   17.7°
2
34%
14:00
23°
1014.4 hPa   17.9°
3
18%
17:00
23°
1013.8 hPa   17.8°
3
23%
20:00
22°
1013.3 hPa 0.1 mm 17.5°
3
28%
23:00
20°
1013.3 hPa 0.4 mm 17.3°
2
59%
 06:30     21:46    Daglengte: 15:16 Zaterdag 28 Jul
02:00
18°
1013.3 hPa 0.6 mm 17.0°
1
90%
05:00
19°
1012.9 hPa   17.3°
2
91%
08:00
19°
1012.6 hPa   17.7°
2
91%
11:00
19°
1013.1 hPa   16.7°
3
91%
14:00
20°
1013.5 hPa   15.6°
5
92%
17:00
20°
1014.1 hPa   13.6°
5
78%
20:00
20°
1014.7 hPa   11.1°
5
64%
23:00
18°
1015.8 hPa   11.4°
4
32%
 06:32     21:45    Daglengte: 15:13 Zondag 29 Jul
02:00
15°
1016.8 hPa   11.2°
4
0%
05:00
15°
1017.5 hPa   11.4°
4
18%
08:00
15°
1018.3 hPa   11.7°
4
35%
11:00
18°
1018.7 hPa   11.2°
3
39%
14:00
21°
1019.0 hPa   9.8°
2
43%
17:00
20°
1018.9 hPa   11.0°
3
28%
20:00
19°
1018.8 hPa   12.0°
3
12%
 06:33     21:44    Daglengte: 15:11 Maandag 30 Jul
02:00
14°
1019.1 hPa   11.4°
2
64%
08:00
15°
1018.2 hPa   10.8°
2
89%
14:00
25°
1017.2 hPa 0.1 mm 11.8°
2
14%
20:00
24°
1015.9 hPa 1.5 mm 13.4°
3
1%
 06:34     21:42    Daglengte: 15:08 Dinsdag 31 Jul
02:00
16°
1016.7 hPa   12.5°
2
11%
08:00
16°
1016.0 hPa   12.3°
1
0%
14:00
24°
1015.4 hPa   14.6°
3
0%
20:00
23°
1015.0 hPa   15.8°
4
0%
 06:36     21:41    Daglengte: 15:05 Woensdag 01 Aug
02:00
19°
1015.9 hPa   16.0°
2
9%
08:00
20°
1016.1 hPa   17.2°
2
5%
14:00
26°
1015.6 hPa   18.2°
3
60%
20:00
22°
1016.5 hPa   16.9°
5
16%
 06:37     21:39    Daglengte: 15:02 Donderdag 02 Aug
02:00
18°
1017.3 hPa 0.3 mm 14.8°
3
16%
08:00
19°
1017.1 hPa 0.3 mm 15.0°
3
28%
14:00
24°
1017.0 hPa 0.5 mm 17.4°
3
23%
20:00
24°
1016.2 hPa 0.5 mm 17.5°
4
14%
 06:38     21:38    Daglengte: 15:00 Vrijdag 03 Aug
02:00
20°
1017.1 hPa 0.9 mm 15.9°
3
17%
08:00
19°
1017.1 hPa 1.0 mm 16.2°
2
22%
14:00
24°
1017.3 hPa 1.8 mm 18.1°
3
18%
20:00
24°
1016.9 hPa 1.5 mm 17.8°
4
15%
 06:40     21:36    Daglengte: 14:56 Zaterdag 04 Aug
02:00
20°
1017.8 hPa 1.0 mm 15.8°
2
10%
08:00
19°
1017.5 hPa 0.4 mm 16.4°
2
18%
14:00
24°
1017.4 hPa 0.9 mm 18.2°
3
20%
20:00
24°
1016.5 hPa 0.4 mm 17.8°
4
17%
 06:41     21:34    Daglengte: 14:53 Zondag 05 Aug
02:00
20°
1017.2 hPa 0.7 mm 15.9°
2
13%
08:00
19°
1016.9 hPa 0.2 mm 16.0°
1
21%
14:00
25°
1016.8 hPa 0.2 mm 17.6°
2
26%
20:00
24°
1015.8 hPa 0.7 mm 17.2°
3
14%
 06:42     21:33    Daglengte: 14:51 Maandag 06 Aug
02:00
19°
1017.0 hPa 0.9 mm 15.3°
1
12%
08:00
18°
1017.2 hPa 0.1 mm 15.4°
1
7%
14:00
24°
1017.4 hPa   16.8°
3
11%
20:00
23°
1016.8 hPa 0.1 mm 16.5°
3
7%
  CAPE Lifted Index Hail Supercell Tornado SRH 3km CL BTM PRES CL TOP PRES Swiss DWD icon SMHI TS
 06:23     21:54    Daglengte: 15:31 Vandaag
23:00 0 J/kg 6.3 K 0 % 0 % 0 % 0 m²/s² 0 0 7.65 0
 06:24     21:53    Daglengte: 15:29 Morgen
00:00 0 J/kg 6.7 K 0 % 0 % 0 % 0 m²/s² 0 0 8.05 0
01:00 0 J/kg 6.9 K 0 % 0 % 0 % 0 m²/s² 0 0 8.37 0
02:00 0 J/kg 7.3 K 0 % 0 % 0 % 0 m²/s² 0 0 9.13 0
03:00 0 J/kg 7.4 K 0 % 0 % 0 % 0 m²/s² 0 0 9.56 0
04:00 0 J/kg 7.2 K 0 % 0 % 0 % 0 m²/s² 0 0 9.57 0
05:00 0 J/kg 6.5 K 0 % 0 % 0 % 0 m²/s² 0 0 9.17 0
06:00 0 J/kg 5.6 K 0 % 0 % 0 % 0 m²/s² 0 0 8.66 0
07:00 0 J/kg 5.8 K 0 % 0 % 0 % 0 m²/s² 0 0 9.52 0
08:00 0 J/kg 6.1 K 0 % 0 % 0 % 0 m²/s² 0 0 10.12 0
09:00 0 J/kg 6.6 K 0 % 0 % 0 % 0 m²/s² 0 0 10.83 0
10:00 0 J/kg 6.9 K 0 % 0 % 0 % 0 m²/s² 0 0 11.37 0
11:00 0 J/kg 5.9 K 0 % 0 % 0 % 0 m²/s² 0 0 10.49 0
12:00 0 J/kg 5.5 K 0 % 0 % 0 % 0 m²/s² 0 0 10.21 0
13:00 0 J/kg 5.4 K 0 % 0 % 0 % 0 m²/s² 0 0 10.11 0
14:00 0 J/kg 5.4 K 0 % 0 % 0 % 0 m²/s² 0 0 10.23 0
15:00 0 J/kg 5.1 K 0 % 0 % 0 % 0 m²/s² 0 0 9.81 0
16:00 0 J/kg 4.8 K 0 % 0 % 0 % 0 m²/s² 0 0 9.39 0
17:00 0 J/kg 4.7 K 0 % 0 % 0 % 0 m²/s² 0 0 9.29 0
18:00 0 J/kg 4.8 K 0 % 0 % 0 % 0 m²/s² 0 0 9.39 1
19:00 0 J/kg 4.4 K 0 % 0 % 0 % 0 m²/s² 0 0 8.78 0
20:00 0 J/kg 4.1 K 0 % 0 % 0 % 0 m²/s² 0 0 8.48 0
21:00 0 J/kg 3.7 K 0 % 0 % 0 % 0 m²/s² 0 0 8.17 0
22:00 0 J/kg 3.3 K 0 % 0 % 0 % 0 m²/s² 0 0 7.89 0
23:00 0 J/kg 2.7 K 0 % 0 % 0 % 0 m²/s² 0 0 7.41 1
 06:25     21:52    Daglengte: 15:27 Dinsdag 24 Jul
00:00 0 J/kg 1.9 K 0 % 0 % 0 % 0 m²/s² 0 0 6.37 1
01:00 0 J/kg 1.1 K 0 % 0 % 0 % 0 m²/s² 0 0 5.24 2
02:00 0 J/kg 0.8 K 0 % 0 % 0 % 0 m²/s² 0 0 4.73 2
03:00 0 J/kg 0.7 K 0 % 0 % 0 % 0 m²/s² 0 0 4.51 2
04:00 0 J/kg 0.8 K 0 % 0 % 0 % 0 m²/s² 0 0 4.52 3
05:00 0 J/kg 0.8 K 0 % 0 % 0 % 0 m²/s² 0 0 4.22 3
06:00 0 J/kg 0.7 K 0 % 0 % 0 % 0 m²/s² 0 0 3.94 3
07:00 0 J/kg 0.4 K 0 % 0 % 0 % 0 m²/s² 0 0 3.28 3
08:00 0 J/kg 0.6 K 0 % 0 % 0 % 0 m²/s² 0 0 3.57 3
09:00 0 J/kg 0.6 K 0 % 0 % 0 % 0 m²/s² 0 0 3.48 3
10:00 0 J/kg 1.0 K 0 % 0 % 0 % 0 m²/s² 0 0 4.15 3
11:00 7 J/kg 0.9 K 0 % 0 % 0 % 0 m²/s² 0 0 3.69 3
12:00 170 J/kg -0.5 K 0 % 0 % 0 % 0 m²/s² 0 0 2.53 3
13:00 421 J/kg -1.4 K 0 % 0 % 0 % 0 m²/s² 0 0 1.72 3
14:00 572 J/kg -1.9 K 0 % 0 % 0 % 0 m²/s² 0 0 1.58 3
15:00 688 J/kg -2.4 K 0 % 0 % 0 % 0 m²/s² 0 0 0 3
16:00 767 J/kg -2.8 K 0 % 0 % 0 % 0 m²/s² 0 0 0.59 3
17:00 817 J/kg -3.1 K 0 % 0 % 0 % 0 m²/s² 0 0 -1.54 3
18:00 716 J/kg -2.8 K 0 % 0 % 0 % 0 m²/s² 0 0 -0.61 2
19:00 948 J/kg -3.0 K 0 % 0 % 0 % 0 m²/s² 0 0 -0.3 0
20:00 1228 J/kg -4.1 K 0 % 0 % 0 % 0 m²/s² 0 0 -1.55 1
21:00 1464 J/kg -5.0 K 0 % 0 % 0 % 0 m²/s² 0 0 -2.51 1
22:00 1286 J/kg -4.6 K 0 % 0 % 0 % 0 m²/s² 0 0 -2.2 0
23:00 870 J/kg -4.1 K 0 % 0 % 0 % 0 m²/s² 0 0 -1.07 1
 06:26     21:50    Daglengte: 15:24 Woensdag 25 Jul
00:00 543 J/kg -3.8 K 0 % 0 % 0 % 0 m²/s² 0 0 -0.77 2
01:00 365 J/kg -3.6 K 0 % 0 % 0 % 0 m²/s² 0 0 -0.3 2
02:00 133 J/kg -3.5 K 0 % 0 % 0 % 0 m²/s² 0 0 0.07 2
03:00 0 J/kg -3.6 K 0 % 0 % 0 % 0 m²/s² 0 0 -0.03 1
04:00 1 J/kg -3.7 K 0 % 0 % 0 % 0 m²/s² 0 0 -0.04 2
05:00 1 J/kg -3.6 K 0 % 0 % 0 % 0 m²/s² 0 0 0.69 2
06:00 1 J/kg -3.5 K 0 % 0 % 0 % 0 m²/s² 0 0 0.79 2
07:00 1 J/kg -3.2 K 0 % 0 % 0 % 0 m²/s² 0 0 0.97 2
08:00 1 J/kg -3.0 K 0 % 0 % 0 % 0 m²/s² 0 0 1.17 1
09:00 1 J/kg -2.9 K 0 % 0 % 0 % 0 m²/s² 0 0 1.18 0
10:00 0 J/kg -2.9 K 0 % 0 % 0 % 0 m²/s² 0 0 1.06 0
11:00 0 J/kg -2.8 K 0 % 0 % 0 % 0 m²/s² 0 0 0.86 0
12:00 1 J/kg -3.0 K 0 % 0 % 0 % 0 m²/s² 0 0 0.3 0
13:00 35 J/kg -2.8 K 0 % 0 % 0 % 0 m²/s² 0 0 0.14 0
14:00 31 J/kg -1.0 K 0 % 0 % 0 % 0 m²/s² 0 0 1.94 0
15:00 23 J/kg -0.9 K 0 % 0 % 0 % 0 m²/s² 0 0 2.13 1
16:00 14 J/kg -1.2 K 0 % 0 % 0 % 0 m²/s² 0 0 2.1 0
17:00 0 J/kg -1.6 K 0 % 0 % 0 % 0 m²/s² 0 0 2 0
18:00 0 J/kg -1.4 K 0 % 0 % 0 % 0 m²/s² 0 0 2.5 0
19:00 0 J/kg -0.9 K 0 % 0 % 0 % 0 m²/s² 0 0 3.09 0
20:00 0 J/kg -0.5 K 0 % 0 % 0 % 0 m²/s² 0 0 3.82 0
21:00 0 J/kg -0.2 K 0 % 0 % 0 % 0 m²/s² 0 0 3.91
22:00 0 J/kg 0.7 K 0 % 0 % 0 % 0 m²/s² 0 0 4.39
Temp Baro Wind Neerslag
  EWN Forecast EWN WRFDA DWD ICON FMI HIRLAM MET Norway GFS
 06:23     21:54    Daglengte: 15:31 Vandaag
23:00 18.4° 1018.3 hPa 1.1 m/s 0.0 mm 17.2° 1018.2 hPa 1.4 m/s 0.0 mm 17.6° 1018.2 hPa 0.7 m/s -2.0 mm 18.7° 1018.7 hPa 0.3 m/s 0.0 mm 18.5° 1018.1 hPa 1.2 m/s 0.0 mm 16.5° 1018.4 hPa 1.1 m/s
 06:24     21:53    Daglengte: 15:29 Morgen
02:00 16.2° 1018.7 hPa 1.1 m/s 0.0 mm 15.5° 1018.9 hPa 1.0 m/s 0.0 mm 15.5° 1019.0 hPa 0.7 m/s 0.0 mm 16.7° 1018.8 hPa 1.4 m/s 0.0 mm 16.1° 1018.4 hPa 1.3 m/s 0.0 mm 15.8° 1019.0 hPa 1.4 m/s
05:00 14.9° 1018.3 hPa 1.3 m/s 0.0 mm 14.2° 1018.5 hPa 2.2 m/s 0.0 mm 14.0° 1018.7 hPa 0.8 m/s 0.0 mm 14.9° 1018.5 hPa 1.4 m/s 0.0 mm 14.9° 1018.0 hPa 1.7 m/s 0.0 mm 15.3° 1018.4 hPa 1.7 m/s
08:00 16.6° 1018.6 hPa 1.1 m/s 0.0 mm 16.6° 1018.5 hPa 1.1 m/s 0.0 mm 15.1° 1018.9 hPa 0.7 m/s 0.0 mm 15.8° 1019.2 hPa 1.6 m/s 0.0 mm 17.0° 1018.5 hPa 1.1 m/s 0.0 mm 17.2° 1018.5 hPa 1.9 m/s
11:00 23.1° 1018.7 hPa 1.0 m/s 0.0 mm 23.1° 1018.6 hPa 1.5 m/s 0.0 mm 22.1° 1019.1 hPa 0.5 m/s 0.0 mm 22.9° 1019.3 hPa 0.9 m/s 0.0 mm 23.4° 1018.3 hPa 1.4 m/s 0.0 mm 22.5° 1018.7 hPa 1.7 m/s
14:00 26.5° 1017.7 hPa 1.3 m/s 0.0 mm 26.3° 1017.7 hPa 1.9 m/s 0.0 mm 26.3° 1018.0 hPa 0.9 m/s 0.0 mm 26.6° 1018.0 hPa 1.3 m/s 0.0 mm 26.3° 1017.4 hPa 1.2 m/s 0.0 mm 26.1° 1018.2 hPa 1.0 m/s
17:00 25.8° 1017.0 hPa 4.2 m/s 0.0 mm 26.1° 1017.2 hPa 3.6 m/s 0.0 mm 24.8° 1017.5 hPa 4.5 m/s 0.0 mm 27.8° 1016.9 hPa 1.9 m/s 0.0 mm 25.2° 1016.4 hPa 4.3 m/s 0.0 mm 26.4° 1017.4 hPa 2.3 m/s
20:00 22.4° 1016.5 hPa 3.8 m/s 0.0 mm 22.6° 1016.6 hPa 3.7 m/s 0.0 mm 21.8° 1017.2 hPa 3.4 m/s 0.0 mm 22.8° 1016.9 hPa 4.5 m/s 0.0 mm 22.0° 1016.3 hPa 3.7 m/s 0.0 mm 23.9° 1016.7 hPa 2.9 m/s
23:00 18.9° 1016.8 hPa 1.2 m/s 0.0 mm 17.5° 1017.1 hPa 2.2 m/s 0.0 mm 18.3° 1016.9 hPa 0.7 m/s 0.0 mm 18.9° 1017.5 hPa 2.1 m/s 0.0 mm 19.0° 1016.6 hPa 0.8 m/s 0.0 mm 18.6° 1017.3 hPa 2.7 m/s
 06:25     21:52    Daglengte: 15:27 Dinsdag 24 Jul
02:00 18.4° 1016.1 hPa 0.8 m/s 0.0 mm 16.7° 1016.3 hPa 0.8 m/s 0.0 mm 17.6° 1016.4 hPa 0.8 m/s 0.0 mm 17.9° 1016.5 hPa 0.8 m/s 0.0 mm 19.4° 1015.9 hPa 0.8 m/s 0.0 mm 17.3° 1016.4 hPa 1.5 m/s
05:00 18.2° 1015.0 hPa 1.4 m/s 0.0 mm 15.6° 1015.6 hPa 0.9 m/s 0.0 mm 17.9° 1015.4 hPa 0.7 m/s 0.0 mm 18.3° 1015.2 hPa 1.9 m/s 0.0 mm 18.8° 1014.8 hPa 1.3 m/s 0.0 mm 17.3° 1015.6 hPa 1.1 m/s
08:00 18.5° 1014.8 hPa 1.3 m/s 0.0 mm 17.0° 1015.2 hPa 1.3 m/s 0.0 mm 18.5° 1014.9 hPa 0.7 m/s 0.0 mm 18.2° 1015.2 hPa 2.2 m/s 0.0 mm 19.7° 1014.8 hPa 1.0 m/s 0.0 mm 19.5° 1015.2 hPa 0.8 m/s
11:00 22.6° 1014.3 hPa 1.8 m/s 0.0 mm 24.0° 1014.4 hPa 1.6 m/s 0.0 mm 20.5° 1014.5 hPa 0.7 m/s 0.0 mm 19.2° 1015.2 hPa 2.5 m/s 0.0 mm 23.8° 1014.0 hPa 1.8 m/s 0.0 mm 21.6° 1015.1 hPa 1.3 m/s
14:00 24.9° 1013.8 hPa 2.2 m/s 0.0 mm 28.4° 1013.0 hPa 2.2 m/s 0.0 mm 23.5° 1013.9 hPa 1.3 m/s 0.0 mm 21.8° 1015.0 hPa 2.5 m/s 0.0 mm 25.1° 1013.8 hPa 1.6 m/s 0.0 mm 26.5° 1014.1 hPa 1.8 m/s
17:00 25.6° 1013.1 hPa 3.3 m/s 0.0 mm 26.7° 1013.1 hPa 3.6 m/s 1.6 mm 25.2° 1013.4 hPa 2.7 m/s 0.0 mm 25.6° 1013.2 hPa 2.9 m/s 0.0 mm 26.4° 1013.2 hPa 3.5 m/s
20:00 24.0° 1012.8 hPa 2.9 m/s 0.0 mm 25.9° 1012.7 hPa 3.2 m/s 2.2 mm 24.1° 1012.6 hPa 2.9 m/s 0.0 mm 23.9° 1013.1 hPa 2.6 m/s 0.0 mm 23.3° 1013.5 hPa 3.6 m/s
23:00 19.6° 1014.0 hPa 1.9 m/s 0.0 mm 20.6° 1013.8 hPa 2.3 m/s 2.2 mm 19.2° 1013.4 hPa 1.3 m/s 0.0 mm 19.5° 1014.3 hPa 1.6 m/s 0.0 mm 19.0° 1014.4 hPa 2.4 m/s
 06:26     21:50    Daglengte: 15:24 Woensdag 25 Jul
02:00 18.6° 1014.2 hPa 2.4 m/s 0.0 mm 18.3° 1013.7 hPa 2.6 m/s 2.2 mm 17.6° 1013.7 hPa 2.3 m/s 0.0 mm 18.8° 1014.6 hPa 2.5 m/s 0.0 mm 17.7° 1014.2 hPa 1.6 m/s
05:00 17.7° 1014.2 hPa 2.0 m/s 0.0 mm 16.4° 1014.4 hPa 3.5 m/s 2.2 mm 16.5° 1013.4 hPa 1.6 m/s 0.0 mm 17.9° 1014.3 hPa 2.0 m/s 0.0 mm 17.0° 1014.7 hPa 2.1 m/s
08:00 18.3° 1014.9 hPa 2.7 m/s 0.0 mm 15.9° 1014.3 hPa 2.1 m/s 2.3 mm 17.8° 1014.1 hPa 2.5 m/s 0.0 mm 19.1° 1015.2 hPa 2.6 m/s 0.0 mm 18.3° 1014.7 hPa 1.8 m/s
11:00 22.0° 1015.3 hPa 2.5 m/s 0.0 mm 21.5° 1014.7 hPa 1.8 m/s 2.3 mm 22.0° 1014.6 hPa 3.5 m/s 0.0 mm 22.4° 1015.4 hPa 2.1 m/s 0.0 mm 22.5° 1015.5 hPa 2.1 m/s
14:00 24.5° 1015.5 hPa 3.7 m/s 0.0 mm 24.7° 1014.6 hPa 3.4 m/s 2.3 mm 24.4° 1014.9 hPa 3.8 m/s 0.0 mm 24.5° 1015.6 hPa 3.4 m/s 0.0 mm 25.1° 1014.8 hPa 3.4 m/s
17:00 24.1° 1014.9 hPa 4.3 m/s 0.0 mm 24.7° 1014.3 hPa 4.0 m/s 2.3 mm 24.9° 1014.3 hPa 3.9 m/s 0.0 mm 23.5° 1015.5 hPa 4.6 m/s 0.0 mm 25.2° 1014.5 hPa 3.7 m/s
20:00 21.3° 1015.3 hPa 3.5 m/s 0.0 mm 21.4° 1014.5 hPa 4.4 m/s 2.3 mm 21.6° 1014.6 hPa 3.4 m/s 0.0 mm 21.2° 1015.9 hPa 3.3 m/s 0.0 mm 22.3° 1014.4 hPa 3.8 m/s
23:00 18.7° 1016.0 hPa 2.4 m/s 2.3 mm 18.0° 1015.2 hPa 2.4 m/s 2.3 mm 18.8° 1016.1 hPa 2.5 m/s 17.4° 1015.5 hPa 2.3 m/s
 06:28     21:49    Daglengte: 15:21 Donderdag 26 Jul
02:00 16.4° 1016.2 hPa 1.6 m/s 2.3 mm 16.7° 1015.4 hPa 1.4 m/s 2.3 mm 16.4° 1016.3 hPa 1.6 m/s 16.3° 1015.6 hPa 1.1 m/s
05:00 17.4° 1015.7 hPa 1.0 m/s 0.0 mm 17.6° 1015.8 hPa 1.0 m/s 15.7° 1015.0 hPa 1.2 m/s 0.0 mm
08:00 18.2° 1015.5 hPa 0.7 m/s 0.0 mm 18.2° 1015.5 hPa 0.7 m/s 17.8° 1015.4 hPa 0.7 m/s 0.0 mm
11:00 21.5° 1015.4 hPa 1.9 m/s 0.0 mm 21.4° 1015.4 hPa 1.9 m/s 22.0° 1016.0 hPa 1.9 m/s 0.0 mm
14:00 24.7° 1015.2 hPa 3.1 m/s 0.0 mm 24.7° 1015.2 hPa 3.1 m/s 24.8° 1015.6 hPa 3.2 m/s 0.0 mm
17:00 23.3° 1015.1 hPa 3.1 m/s 0.0 mm 23.2° 1015.0 hPa 3.0 m/s 24.9° 1015.4 hPa 4.1 m/s 0.1 mm
20:00 21.7° 1014.9 hPa 3.0 m/s 0.1 mm 21.7° 1014.9 hPa 2.9 m/s 22.1° 1015.5 hPa 4.0 m/s 0.1 mm
23:00 19.8° 1015.4 hPa 2.2 m/s 0.0 mm 20.0° 1015.2 hPa 2.2 m/s 17.2° 1016.9 hPa 2.1 m/s 0.0 mm
 06:29     21:48    Daglengte: 15:19 Vrijdag 27 Jul
02:00 18.2° 1015.7 hPa 1.5 m/s 0.0 mm 18.4° 1015.6 hPa 1.6 m/s 15.7° 1016.8 hPa 0.5 m/s 0.0 mm
05:00 18.4° 1015.4 hPa 1.5 m/s 0.0 mm 18.7° 1015.3 hPa 1.6 m/s 15.2° 1016.5 hPa 1.1 m/s 0.0 mm
08:00 18.9° 1015.2 hPa 1.4 m/s 0.0 mm 19.0° 1015.0 hPa 1.5 m/s 17.5° 1016.9 hPa 0.7 m/s 0.0 mm
11:00 21.2° 1014.8 hPa 2.1 m/s 0.0 mm 21.1° 1014.6 hPa 2.0 m/s 21.2° 1017.1 hPa 2.4 m/s 0.0 mm
14:00 23.4° 1014.4 hPa 2.6 m/s 0.0 mm 23.3° 1014.2 hPa 2.6 m/s 24.2° 1016.4 hPa 2.7 m/s 0.0 mm
17:00 22.7° 1013.8 hPa 3.0 m/s 0.0 mm 22.6° 1013.6 hPa 2.9 m/s 23.6° 1016.1 hPa 4.2 m/s 0.1 mm
20:00 21.8° 1013.3 hPa 3.2 m/s 0.1 mm 21.9° 1013.0 hPa 3.1 m/s 20.2° 1016.3 hPa 4.4 m/s 0.1 mm
23:00 19.9° 1013.3 hPa 2.2 m/s 0.4 mm 20.2° 1013.0 hPa 2.1 m/s 15.9° 1017.7 hPa 2.8 m/s 0.4 mm
 06:30     21:46    Daglengte: 15:16 Zaterdag 28 Jul
02:00 18.3° 1013.3 hPa 1.2 m/s 0.6 mm 18.6° 1012.9 hPa 1.2 m/s 15.4° 1017.9 hPa 1.5 m/s 0.6 mm
05:00 18.7° 1012.9 hPa 1.9 m/s 0.0 mm 19.0° 1012.5 hPa 1.8 m/s 15.7° 1018.0 hPa 2.5 m/s 0.0 mm
08:00 19.1° 1012.6 hPa 2.4 m/s 0.0 mm 19.3° 1012.0 hPa 2.4 m/s 16.7° 1018.8 hPa 2.0 m/s 0.0 mm
11:00 19.4° 1013.1 hPa 3.5 m/s 0.0 mm 19.4° 1012.5 hPa 3.5 m/s 20.1° 1019.2 hPa 3.2 m/s 0.0 mm
14:00 19.6° 1013.5 hPa 4.6 m/s 0.0 mm 19.4° 1013.0 hPa 4.6 m/s 22.1° 1019.0 hPa 4.1 m/s 0.0 mm
17:00 20.0° 1014.1 hPa 4.7 m/s 0.0 mm 19.9° 1013.6 hPa 4.8 m/s 21.1° 1018.6 hPa 4.2 m/s 0.0 mm
20:00 20.4° 1014.7 hPa 4.7 m/s 0.0 mm 20.5° 1014.3 hPa 4.9 m/s 18.8° 1018.5 hPa 3.0 m/s 0.0 mm
23:00 17.5° 1015.8 hPa 4.3 m/s 0.0 mm 17.7° 1015.5 hPa 4.5 m/s 15.9° 1018.7 hPa 2.6 m/s 0.0 mm
 06:32     21:45    Daglengte: 15:13 Zondag 29 Jul
02:00 14.9° 1016.8 hPa 3.9 m/s 0.0 mm 14.9° 1016.7 hPa 4.1 m/s 15.0° 1018.2 hPa 2.2 m/s 0.0 mm
05:00 14.9° 1017.5 hPa 3.8 m/s 0.0 mm 14.9° 1017.5 hPa 3.9 m/s 15.0° 1017.1 hPa 1.8 m/s 0.0 mm
08:00 15.1° 1018.3 hPa 3.6 m/s 0.0 mm 14.9° 1018.4 hPa 3.8 m/s 17.2° 1016.7 hPa 1.4 m/s 0.0 mm
11:00 18.3° 1018.7 hPa 3.0 m/s 0.0 mm 18.0° 1018.8 hPa 3.0 m/s 21.5° 1016.5 hPa 2.8 m/s 0.0 mm
14:00 21.2° 1019.0 hPa 2.4 m/s 0.0 mm 21.1° 1019.3 hPa 2.2 m/s 21.9° 1015.9 hPa 4.1 m/s 0.0 mm
17:00 20.4° 1018.9 hPa 2.7 m/s 0.0 mm 20.1° 1019.2 hPa 2.5 m/s 23.4° 1015.1 hPa 4.5 m/s 0.0 mm
20:00 19.4° 1018.8 hPa 2.9 m/s 0.0 mm 19.2° 1019.1 hPa 2.9 m/s 21.3° 1015.0 hPa 3.5 m/s 0.0 mm
 06:33     21:44    Daglengte: 15:11 Maandag 30 Jul
02:00 14.1° 1019.1 hPa 1.7 m/s 0.0 mm 13.9° 1019.5 hPa 1.8 m/s 15.8° 1015.0 hPa 0.9 m/s 0.0 mm
08:00 14.8° 1018.2 hPa 2.0 m/s 0.0 mm 14.6° 1018.6 hPa 2.1 m/s 17.1° 1014.0 hPa 1.5 m/s 0.0 mm
14:00 24.7° 1017.2 hPa 2.2 m/s 0.1 mm 24.7° 1017.5 hPa 2.1 m/s 24.7° 1013.8 hPa 2.8 m/s 0.1 mm
20:00 23.7° 1015.9 hPa 2.5 m/s 0.8 mm 24.1° 1016.0 hPa 2.6 m/s 19.4° 1014.7 hPa 1.6 m/s 0.8 mm
 06:34     21:42    Daglengte: 15:08 Dinsdag 31 Jul
02:00 16.4° 1016.7 hPa 2.2 m/s 0.0 mm 16.6° 1016.7 hPa 2.2 m/s 14.6° 1017.0 hPa 2.1 m/s 0.0 mm
08:00 15.8° 1016.0 hPa 1.4 m/s 0.0 mm 15.9° 1015.8 hPa 1.3 m/s 14.7° 1018.5 hPa 2.0 m/s 0.0 mm
14:00 24.2° 1015.4 hPa 3.4 m/s 0.0 mm 24.3° 1015.1 hPa 3.5 m/s 23.2° 1019.0 hPa 2.9 m/s 0.0 mm
20:00 22.7° 1015.0 hPa 3.6 m/s 0.0 mm 22.8° 1014.7 hPa 3.6 m/s 21.7° 1018.6 hPa 3.8 m/s 0.0 mm
 06:36     21:41    Daglengte: 15:05 Woensdag 01 Aug
02:00 18.9° 1015.9 hPa 1.6 m/s 0.0 mm 18.9° 1015.9 hPa 1.6 m/s
08:00 19.6° 1016.1 hPa 2.0 m/s 0.0 mm 19.8° 1015.8 hPa 2.0 m/s 17.3° 1019.3 hPa 1.8 m/s 0.0 mm
14:00 25.8° 1015.6 hPa 3.4 m/s 0.0 mm 25.6° 1015.3 hPa 3.4 m/s 27.7° 1018.3 hPa 3.9 m/s 0.0 mm
20:00 22.5° 1016.5 hPa 4.9 m/s 0.0 mm
 06:37     21:39    Daglengte: 15:02 Donderdag 02 Aug
02:00 18.3° 1017.3 hPa 3.4 m/s 0.3 mm
08:00 18.5° 1017.1 hPa 2.8 m/s 0.3 mm
14:00 24.0° 1017.0 hPa 3.2 m/s 0.5 mm
20:00 23.8° 1016.2 hPa 4.4 m/s 0.5 mm
 06:38     21:38    Daglengte: 15:00 Vrijdag 03 Aug
02:00 19.6° 1017.1 hPa 2.9 m/s 0.9 mm
08:00 19.3° 1017.1 hPa 2.0 m/s 1.0 mm
14:00 24.5° 1017.3 hPa 2.6 m/s 1.8 mm
20:00 23.9° 1016.9 hPa 3.7 m/s 1.5 mm
 06:40     21:36    Daglengte: 14:56 Zaterdag 04 Aug
02:00 19.5° 1017.8 hPa 2.0 m/s 1.0 mm
08:00 19.3° 1017.5 hPa 1.6 m/s 0.4 mm
14:00 24.4° 1017.4 hPa 2.6 m/s 0.9 mm
20:00 23.9° 1016.5 hPa 3.8 m/s 0.4 mm
 06:41     21:34    Daglengte: 14:53 Zondag 05 Aug
02:00 19.6° 1017.2 hPa 1.7 m/s 0.7 mm
08:00 19.1° 1016.9 hPa 1.2 m/s 0.2 mm
14:00 24.5° 1016.8 hPa 2.2 m/s 0.2 mm
20:00 23.6° 1015.8 hPa 3.5 m/s 0.7 mm
 06:42     21:33    Daglengte: 14:51 Maandag 06 Aug
02:00 19.0° 1017.0 hPa 1.5 m/s 0.9 mm
08:00 18.3° 1017.2 hPa 1.4 m/s 0.1 mm
14:00 23.6° 1017.4 hPa 2.6 m/s 0.0 mm
20:00 22.6° 1016.8 hPa 3.5 m/s 0.1 mm
FMI Hirlam - 7.5 km EWN WRFDA - 12 km DWD ICON - 7 km GFS - 25 km Basiskaart






























































Updatetijd (Europe/Amsterdam) Resolutie Lengte Stap
FMI Hirlam 19:00, 01:00, 07:00, 13:00 7.5 km 49h 1h
EWN WRFDA 21:45, 03:45, 09:45, 15:45 12 km 73h 1h
DWD ICON 18:45, 00:45, 06:45, 12:45 7 km 75h 1h
GFS 21:15, 03:15, 09:15, 15:15 25 km 237h 3h
30+ mm
25-30 mm
20-25 mm
15-20 mm
10-15 mm
6-10 mm
4-6 mm
2-4 mm
1-2 mm
0.5-1 mm
0.2-0.5 mm
0.1-0.2 mm
30+ mm
25-30 mm
20-25 mm
15-20 mm
10-15 mm
6-10 mm
4-6 mm
2-4 mm
1-2 mm
0.5-1 mm
0.2-0.5 mm
0.1-0.2 mm
Sneeuwval
Natte sneeuw
Hagel
Vorst
30+ mm
25-30 mm
20-25 mm
15-20 mm
10-15 mm
6-10 mm
4-6 mm
2-4 mm
1-2 mm
0.5-1 mm
0.2-0.5 mm
0.1-0.2 mm
Sneeuwval
Natte sneeuw
Hagel
Vorst
Onweer
50 mm
40 mm
30 mm
26 mm
22 mm
18 mm
14 mm
10 mm
9 mm
8 mm
7 mm
6 mm
5 mm
4.5 mm
4 mm
3.5 mm
3 mm
2.5 mm
2 mm
1.5 mm
1 mm
0.8 mm
0.6 mm
0.4 mm
0.2 mm
0.05 mm
35°
30°
25°
20°
15°
10°
-5°
-10°
-15°
-20°
-25°
-30°
-35°
33> m/s
29 m/s
25 m/s
21 m/s
17 m/s
14 m/s
11 m/s
8 m/s
5 m/s
3 m/s
0 m/s
2600 J/kg
2400 J/kg
2200 J/kg
2000 J/kg
1800 J/kg
1600 J/kg
1400 J/kg
1200 J/kg
1000 J/kg
800 J/kg
600 J/kg
400 J/kg
200 J/kg
70 dBZ
65 dBZ
60 dBZ
55 dBZ
50 dBZ
45 dBZ
40 dBZ
35 dBZ
30 dBZ
25 dBZ
20 dBZ
15 dBZ
10 dBZ
5 dBZ
-1 K
-2 K
-3 K
-4 K
-5 K
-6 K
-7 K
-8 K
-9 K
950 m²/s²
900 m²/s²
850 m²/s²
800 m²/s²
750 m²/s²
700 m²/s²
650 m²/s²
600 m²/s²
550 m²/s²
500 m²/s²
450 m²/s²
400 m²/s²
350 m²/s²
300 m²/s²
250 m²/s²
200 m²/s²
150 m²/s²
100 m²/s²
46 m/s
44 m/s
42 m/s
40 m/s
38 m/s
36 m/s
34 m/s
32 m/s
30 m/s
28 m/s
26 m/s
24 m/s
22 m/s
20 m/s
16 m/s
12 m/s
8 m/s
4 m/s
30 m/s
28 m/s
26 m/s
24 m/s
22 m/s
20 m/s
18 m/s
16 m/s
14 m/s
12 m/s
10 m/s
8 m/s
6 m/s
4 m/s
2 m/s
3.0
2.8
2.6
2.4
2.2
2.0
1.8
1.6
1.4
1.2
1.0
0.8
0.6
0.4
0.2
15
14
13
12
11
10
9
8
7
6
5
4
3
2
1
90%
80%
70%
60%
50%
40%
30%
20%
10%
42
40
38
36
34
32
30
28
26
24
22
20
18
16
14
12
90+ cm
80-90 cm
70-80 cm
60-70 cm
50-60 cm
40-50 cm
30-40 cm
20-30 cm
10-20 cm
1-10 cm
Sneeuwval
Natte sneeuw
Regen
>120 mm
115 mm
110 mm
105 mm
100 mm
95 mm
90 mm
85 mm
80 mm
75 mm
70 mm
65 mm
60 mm
55 mm
50 mm
45 mm
45 mm
40 mm
35 mm
30 mm
25 mm
20 mm
15 mm
10 mm
5 mm
0.1 mm
960 hPa
880 hPa
800 hPa
720 hPa
640 hPa
560 hPa
584 gpdm
568 gpdm
552 gpdm
536 gpdm
520 gpdm
504 gpdm
488 gpdm
Extreem zwaar Noodweer Kans op onweer
15% 15% 5% 50% 15%

Dag




Kaart






35°
30°
25°
20°
15°
10°
-5°
-10°
-15°
-20°
-25°
-30°
-35°
33> m/s
29 m/s
25 m/s
21 m/s
17 m/s
14 m/s
11 m/s
8 m/s
5 m/s
3 m/s
0 m/s
Extreem zwaar Noodweer Kans op onweer
15% 15% 5% 50% 15%
>120 mm
115 mm
110 mm
105 mm
100 mm
95 mm
90 mm
85 mm
80 mm
75 mm
70 mm
65 mm
60 mm
55 mm
50 mm
45 mm
45 mm
40 mm
35 mm
30 mm
25 mm
20 mm
15 mm
10 mm
5 mm
0.1 mm
Onweer risico kaarten - De groene en gele kleur geeft de kans op onweer aan binnen 40 km van een punt. Oranje, rood en violet hebben hetzelfde niveau zoals je het ziet op estofex.org waaronder ook de kans op hagel en supercells.

dBZ - dBZ staat voor decibel ten opzichte van Z.

Cape - Convective available potential energy (CAPE), is de totale hoeveelheid energie die een luchtpakketje nodig heeft om zover mogelijk te stijgen in de atmosfeer.

K Index - K-Index wordt berekend door de Vertical Totals (VT) en het verschil tussen de 850 hPa temperatuur en de 700 hPa dauwpuntsdepressie (Tdd 700) bij elkaar op te tellen.

TT Index - Convectie index wordt gebruikt voor het voorspellen van zware buien of onweer.

WRF - The Weather Research and Forecasting (WRF) is een volgende generatie mesoscale numeriek weersvoorspelling systeem ontworpen om zowel de operationele planning als het atmosferisch onderzoek te dienen. WRF is a cooperatie tussen het National Center for Atmospheric Research (NCAR), National Centers for Environmental Prediction (NCEP), Forecast Systems Laboratory (FSL), Air Force Weather Agency (AFWA), Naval Research Laboratory, University of Oklahoma, en de Federal Aviation Administration (FAA). Deze software draait op onze server.

WRFDA - Een meer geavanceerde versie van WRF

Arome - Het 2.5 km Arome model. Verzorgd door het Noors Meteorologisch Instituut.

MET Norway - De proff-default 4km meteorological data is een beste keus selectie van meteorologische modellen gebruikt door met.no die zijn geïnterpoleerd tot een gemeenschappelijke dataset. Verzorgd door het Noorse Meteorologisch Instituut.

SMHI - Het Hirlam model verzorgd door het Zweeds meteorologisch instituut.

FMI - Het Hirlam model verzorgd door het Fins meteorologisch instituut. Dekking alleen Finland.

GFS - Het Global Forecast Systeem (GFS) is een wereldwijd numerieke weersvoorspelling computermodel, gerund door NOAA.

GEM-GDPS - Het GEM-GDPS is a wereldwijd numeriek weersvoorspelling computermodel verzorgd door het Canadees Meteorologisch Centrum.

Credits/Info: Dank aan Stefan Gofferje van sääkeskus.fi voor enkele formules van GrADS. Info: Wikipedia.

Betrouwbaarheid van de verwachting

NB! 2015-03-29: Rebuilding the accuracy-test!

EWNACC
Day 1 Good forecasts

Dag 1 Tmax

Dag 2 Tmax

Geladen verwachtingen TOP 50

Totaal geladen verwachtingen:
Plaats Latitude Longitude Verwachtingen Plaats Latitude Longitude Verwachtingen